This is the latest recevied weather packets stored in our database for station/object SV9TNF-57. If no packets are shown the sender has not sent any weather packets the latest 10 day(s).
| Time | Temp. | Humidity | Pressure | Rain* | Wind** | Luminosity | Snow |
|---|---|---|---|---|---|---|---|
| 1788599259 | 30.56° C | 31% | 997.3 hPa | 0 mm | 15.65 m/s, 280° | - | - |
| 1788598959 | 30.56° C | 30% | 997.4 hPa | 0 mm | 12.07 m/s, 353° | - | - |
| 1788598659 | 30.56° C | 30% | 997.5 hPa | 0 mm | 8.05 m/s, 354° | - | - |
| 1788598358 | 30.56° C | 31% | 997.4 hPa | 0 mm | 12.96 m/s, 298° | - | - |
| 1788598076 | 30.56° C | 31% | 997.4 hPa | 0 mm | 13.86 m/s, 324° | - | - |
| 1788597758 | 30.56° C | 30% | 997.6 hPa | 0 mm | 8.49 m/s, 301° | - | - |
| 1788597458 | 30.56° C | 31% | 997.5 hPa | 0 mm | 13.86 m/s, 325° | - | - |
| 1788597158 | 31.11° C | 31% | 997.6 hPa | 0 mm | 13.86 m/s, 244° | - | - |
| 1788596858 | 31.11° C | 31% | 997.4 hPa | 0 mm | 13.86 m/s, 326° | - | - |
| 1788596558 | 31.11° C | 32% | 997.6 hPa | 0 mm | 4.92 m/s, 231° | - | - |
| 1788596258 | 31.11° C | 31% | 997.4 hPa | 0 mm | 1.79 m/s, 244° | - | - |
| 1788595958 | 31.11° C | 32% | 997.2 hPa | 0 mm | 10.28 m/s, 287° | - | - |
| 1788595657 | 30.56° C | 32% | 997.5 hPa | 0 mm | 7.6 m/s, 319° | - | - |
| 1788595357 | 30.56° C | 32% | 997.2 hPa | 0 mm | 11.18 m/s, 276° | - | - |
| 1788595057 | 30.56° C | 31% | 997 hPa | 0 mm | 4.92 m/s, 359° | - | - |
| 1788594757 | 30.56° C | 32% | 997.5 hPa | 0 mm | 14.31 m/s, 342° | - | - |
| 1788594457 | 30.56° C | 32% | 997.5 hPa | 0 mm | 7.15 m/s, 280° | - | - |
| 1788594157 | 30.56° C | 32% | 997.1 hPa | 0 mm | 14.31 m/s, 286° | - | - |
| 1788593857 | 30° C | 33% | 997.1 hPa | 0 mm | 7.15 m/s, 329° | - | - |
| 1788593557 | 30° C | 33% | 997 hPa | 0 mm | 10.28 m/s, 335° | - | - |
| 1788593257 | 30° C | 33% | 997.1 hPa | 0 mm | 4.47 m/s, 68° | - | - |
| 1788592957 | 30.56° C | 33% | 996.9 hPa | 0 mm | 9.39 m/s, 341° | - | - |
| 1788592656 | 30° C | 32% | 997 hPa | 0 mm | 6.71 m/s, 14° | - | - |
| 1788592356 | 30° C | 33% | 997.1 hPa | 0 mm | 8.94 m/s, 356° | - | - |
| 1788592056 | 30.56° C | 32% | 997 hPa | 0 mm | 8.05 m/s, 298° | - | - |
* Rain latest hour (hover to see other rain measurements)
** Current wind speed in m/s (hover to see current wind gust speed)